Satellite-Ground Cal/Val Region Overpasses Predictions

Prediction of Satellite NPP Overpassing Cal/Val Region: PacNW

Region Location: (Latitude: 10.00, Longitude: 139.50) to (Latitude: 22.70, Longitude: 165.60).

Table of predicted overpasses for the next 14.0 days since TLE Epoch: 6/24/2023
Interval Starting Time Starting Location Ending Time Ending Location
1 06/24/2023 03:18:42 ( 10.03, 150.49) 06/24/2023 03:22:17 ( 22.65, 147.49)
2 06/24/2023 15:50:36 ( 22.66, 147.70) 06/24/2023 15:54:11 ( 10.03, 144.70)
3 06/25/2023 02:59:41 ( 10.02, 155.24) 06/25/2023 03:03:16 ( 22.64, 152.24)
4 06/25/2023 15:31:35 ( 22.67, 152.45) 06/25/2023 15:35:10 ( 10.04, 149.46)
5 06/26/2023 02:40:40 ( 10.01, 159.99) 06/26/2023 02:44:16 ( 22.69, 156.98)
6 06/26/2023 15:12:33 ( 22.67, 157.21) 06/26/2023 15:16:08 ( 10.05, 154.21)
7 06/27/2023 02:21:38 ( 10.01, 164.75) 06/27/2023 02:25:14 ( 22.69, 161.74)
8 06/27/2023 14:53:32 ( 22.68, 161.96) 06/27/2023 14:57:07 ( 10.06, 158.96)
9 06/28/2023 03:44:07 ( 10.00, 144.13) 06/28/2023 03:47:43 ( 22.69, 141.12)
10 06/28/2023 14:35:48 ( 18.11, 165.60) 06/28/2023 14:38:06 ( 10.00, 163.71)
11 06/28/2023 16:16:00 ( 22.68, 141.34) 06/28/2023 16:18:09 ( 15.11, 139.51)
12 06/29/2023 03:25:05 ( 10.00, 148.88) 06/29/2023 03:28:41 ( 22.68, 145.87)
13 06/29/2023 15:56:59 ( 22.68, 146.09) 06/29/2023 16:00:35 ( 10.00, 143.08)
14 06/30/2023 03:06:05 ( 10.06, 153.62) 06/30/2023 03:09:40 ( 22.68, 150.62)
15 06/30/2023 15:37:57 ( 22.68, 150.85) 06/30/2023 15:41:33 ( 10.00, 147.84)
16 07/01/2023 02:47:03 ( 10.06, 158.37) 07/01/2023 02:50:38 ( 22.68, 155.38)
17 07/01/2023 15:18:56 ( 22.68, 155.60) 07/01/2023 15:22:32 ( 10.00, 152.59)
18 07/02/2023 02:28:02 ( 10.06, 163.13) 07/02/2023 02:31:37 ( 22.68, 160.13)
19 07/02/2023 14:59:54 ( 22.68, 160.35) 07/02/2023 15:03:30 ( 10.00, 157.34)
20 07/03/2023 02:11:46 ( 19.81, 165.59) 07/03/2023 02:12:35 ( 22.68, 164.88)
21 07/03/2023 03:50:29 ( 10.00, 142.52) 07/03/2023 03:54:05 ( 22.69, 139.51)
22 07/03/2023 14:40:53 ( 22.68, 165.11) 07/03/2023 14:44:29 ( 10.00, 162.10)
23 07/03/2023 16:22:23 ( 22.68, 139.73) 07/03/2023 16:22:38 ( 21.80, 139.51)
24 07/04/2023 03:31:28 ( 10.01, 147.27) 07/04/2023 03:35:04 ( 22.69, 144.26)
25 07/04/2023 16:03:22 ( 22.67, 144.48) 07/04/2023 16:06:57 ( 10.05, 141.49)
26 07/05/2023 03:12:26 ( 10.01, 152.02) 07/05/2023 03:16:02 ( 22.69, 149.01)
27 07/05/2023 15:44:20 ( 22.67, 149.24) 07/05/2023 15:47:55 ( 10.05, 146.24)
28 07/06/2023 02:53:25 ( 10.02, 156.78) 07/06/2023 02:57:01 ( 22.70, 153.77)
29 07/06/2023 15:25:19 ( 22.66, 153.99) 07/06/2023 15:28:54 ( 10.04, 150.99)
30 07/07/2023 02:34:23 ( 10.02, 161.53) 07/07/2023 02:37:58 ( 22.65, 158.53)
